KINEIS-3C

Satellite information

Favourite Embed

Satellite Type and Status

PAYLOADIN ORBIT

Key statistics

Satellite KINEIS-3C at a glance.

Uptime

450

Days in orbit

Revolutions

≈ 14.7

Per day

Orbit

SSO

Sun Synchronous Orbit

Inclination

98.0

Latest

Satellite identification and parameters

Extended collection of information and parameters for KINEIS-3C.

Object identification

Identified? True

Debris? False

Object name: KINEIS-3C

International designator: 2024-172A

Object number (NORAD): 61220

Object ID (CCSDS): 61220

Country: FRANCE (FR)

Current information (Y/N): Y

RCS size: MEDIUM

Orbital parameters

Period: 97.804 minutes

Inclination: 98.0276 deg

SMA: 7031.775 km

Apoapsis: 654.966 km

Periapsis: 652.315 km

RAAN: 74.2739 deg

Eccentricy: 0.00018849

Argument of periapsis: 47.8333 deg

Mean anomaly: 312.3034 deg

Mean motion: 14.7233048 rev/day

Mean motion (dot): 0.0000419 rev/day2

B* drag term: 0.00067013627 1/REarth

Two-line elements (TLE)

Creation date: Dec. 13, 2025, 5:47 p.m.

Reference frame: TEME

Reference center: EARTH

Epoch: Dec. 13, 2025, 4:46 a.m. UTC

TLE line 0: 0 KINEIS-3C

TLE line 1: 1 61220U 24172A 25347.19896966 .00004190 00000-0 67014-3 0 9997

TLE line 2: 2 61220 98.0276 74.2739 0001885 47.8333 312.3034 14.72330480 65703

Live tracking on map

Real-time ground track for satellite KINEIS-3C.

In-orbit conjunctions

There are no conjunctions computed for KINEIS-3C, at the moment. Check back to stay up to date, as we update our databases every day.

Go to all conjunctions

Associated space launch

Second batch of five satellites for the French Kinéis IoT constellation designed to operate with 25 nanosatellites of 30 kg each.

KINEIS-3C was lifted into orbit during the mission ‘Electron | Kinéis Killed the RadIoT Star (Kinéis 6-10)’, on board a Electron space rocket.

The launch took place on Sept. 20, 2024, 11:01 p.m. from Rocket Lab Launch Complex 1A.

For more information about the launch, click the button.

Launch to space Electron | Kinéis Killed the RadIoT Star (Kinéis 6-10)
Electron | Kinéis Killed the RadIoT Star (Kinéis 6-10)

Agency: Kinéis

Status: Launch Successful

Launch date: Sept. 20, 2024, 11:01 p.m. UTC

Rocket: Electron

Launch pad: Rocket Lab Launch Complex 1A

Location: Rocket Lab Launch Complex 1, Mahia Peninsula, New Zealand

...

Latest news about this satellite

News about space launch
Electron launches second set of Kinéis satellites

An Electron launched a second set of satellites for French startup Kinéis Sept. 20, putting that company on track to begin offering Internet of Things services.

News about space launch
Rocket Lab launches 5 Internet of Things satellites following mid-week scrub

The mission will be the 53rd launch of an Electron rocket to date. Liftoff from Launch Complex 1 Pad A happened on Sept. 21 at 11:01 a.m. NZST (Sept. 20 at 7:01 p.m. EDT, 2301 UTC).

News about space launch
Launch Roundup: Falcon 9 and Electron to extend satellite constellations

This week’s manifest includes the delayed launches of a Falcon 9 with Galileo global positioning satellites and an Electron with a second batch of satellites for Kinéis. SpaceX will also launch one batch of Starlink satellites from California as the const...


Newsletter sign-up

Weekly statistics, charts and insights to help you stay on top of the space industry.